Location: Newark
(43.4306°N, 0.3089°E)
Time: 20:58:08
(UTC+00:00)

Transit 2A Rocket - Pass Details

Date: 28 August 2019
Orbit: 594 x 910 km, 66.7° (Epoch: 18 October)

Event Time Altitude Azimuth Distance (km) Brightness Sun altitude
Rises 02:28:22 0° 330° (NNW) 2,996 8.3 -27.0°
Reaches altitude 10° 02:30:45 10° 332° (NNW) 2,040 7.4 -26.7°
Enters shadow 02:34:42 61° 5° (N) 700 4.9 -26.2°
